Terminal Aerodrome Forecast
Issued by NWS Rapid City, SD

Home | Current Version | Previous Version | Graphics & Text | Print | Product List | Glossary On
Versions: 1 2 3 4 5 6 7 8 9 10 11 12 13 14 15 16 17 18 19 20 21 22 23 24
000
FTUS43 KUNR 202200 AAA
TAFRAP
TAF AMD
KRAP 202200Z 2022/2118 35023G33KT P6SM SCT070
     FM210200 31007KT P6SM FEW070
     FM210500 VRB06KT P6SM SKC
     FM211600 33013KT P6SM SCT150=

USA.gov is the U.S. government's official web portal to all federal, state and local government web resources and services.